Location: Ahausen
(50.4985°N, 8.2722°E)
Time: 03:42:46
(UTC+00:00)

NOSS 3-2 (C) - Pass Details

Date: 18 September 2020
Orbit: 795 x 1418 km, 63.4° (Epoch: 02 October)

Event Time Altitude Azimuth Distance (km) Brightness Sun altitude
Rises 18:42:55 0° 313° (NW) 3,839 7.9 -11.7°
Reaches altitude 10° 18:45:28 10° 318° (NW) 2,969 7.0 -12.1°
Maximum altitude 18:52:35 59° 38° (NE) 1,400 4.2 -13.2°
Enters shadow 18:58:45 18° 113° (ESE) 2,751 5.2 -14.1°
